,,PA_Meas_PMT16A,,PR_Meas_QMR101_102,,RH_Meas_QMH101,,SR_Meas_QMS101,,TA_Meas_QMH101,,GenWind,,GenWind,
time,status,PA,status,PR,status,RH,status,SR,status,TA,status,DirAvg,status,SpdAvg,
2015-03-19, 07:20:04,VALID,918.062,VALID,0,VALID,98.2811,VALID,91.1101,VALID,20.4033,VALID,137,VALID,0,
2015-03-19, 07:21:04,VALID,918.071,VALID,0,VALID,98.2506,VALID,94.978,VALID,20.4423,VALID,166,VALID,0,
2015-03-19, 07:22:04,VALID,918.042,VALID,0,VALID,98.2506,VALID,93.4738,VALID,20.5009,VALID,167,VALID,0,
2015-03-19, 07:23:04,VALID,918.05,VALID,0,VALID,98.243,VALID,97.9863,VALID,20.5219,VALID,156,VALID,0.00273437,
2015-03-19, 07:24:04,VALID,918.07,VALID,0,VALID,98.243,VALID,106.044,VALID,20.5414,VALID,178,VALID,0,
2015-03-19, 07:25:04,VALID,918.111,VALID,0,VALID,98.2353,VALID,107.011,VALID,20.5399,VALID,162,VALID,0,
2015-03-19, 07:26:04,VALID,918.115,VALID,0,VALID,98.2506,VALID,99.8128,VALID,20.5399,VALID,164,VALID,0.263672,
2015-03-19, 07:27:04,VALID,918.147,VALID,0,VALID,98.2125,VALID,103.896,VALID,20.5594,VALID,164,VALID,0,
2015-03-19, 07:28:04,VALID,918.166,VALID,0,VALID,98.2048,VALID,109.697,VALID,20.5789,VALID,151,VALID,0.00429688,
2015-03-19, 07:29:04,VALID,918.167,VALID,0,VALID,98.2125,VALID,107.334,VALID,20.5984,VALID,168,VALID,0,
2015-03-19, 07:30:04,VALID,918.207,VALID,0,VALID,98.1896,VALID,107.871,VALID,20.6179,VALID,160,VALID,0.130859,
2015-03-19, 07:31:04,VALID,918.218,VALID,0,VALID,98.1896,VALID,116.681,VALID,20.5984,VALID,152,VALID,0.0015625,
2015-03-19, 07:32:04,VALID,918.191,VALID,0,VALID,98.1743,VALID,119.26,VALID,20.5984,VALID,143,VALID,0.132422,
2015-03-19, 07:33:04,VALID,918.204,VALID,0,VALID,98.1515,VALID,124.095,VALID,20.6179,VALID,167,VALID,0.490625,
2015-03-19, 07:34:04,VALID,918.189,VALID,0,VALID,98.1286,VALID,126.458,VALID,20.6374,VALID,169,VALID,0,
2015-03-19, 07:35:04,VALID,918.173,VALID,0,VALID,98.0981,VALID,131.401,VALID,20.6959,VALID,165,VALID,0,
2015-03-19, 07:36:04,VALID,918.187,VALID,0,VALID,98.0676,VALID,132.045,VALID,20.7349,VALID,168,VALID,0.249609,
2015-03-19, 07:37:04,VALID,918.167,VALID,0,VALID,98.0448,VALID,135.054,VALID,20.7934,VALID,175,VALID,0,
2015-03-19, 07:38:04,VALID,918.176,VALID,0,VALID,98.0219,VALID,135.806,VALID,20.8714,VALID,159,VALID,0,
2015-03-19, 07:39:04,VALID,918.172,VALID,0,VALID,98.0066,VALID,141.178,VALID,20.8519,VALID,166,VALID,0,
2015-03-19, 07:40:04,VALID,918.22,VALID,0,VALID,97.9456,VALID,144.293,VALID,20.8519,VALID,162,VALID,0,
2015-03-19, 07:41:04,VALID,918.202,VALID,0,VALID,97.8923,VALID,149.128,VALID,20.891,VALID,172,VALID,0,
2015-03-19, 07:42:04,VALID,918.236,VALID,0,VALID,97.8389,VALID,152.352,VALID,20.969,VALID,170,VALID,0,
2015-03-19, 07:43:04,VALID,918.23,VALID,0,VALID,97.7779,VALID,155.79,VALID,21.047,VALID,170,VALID,0,
2015-03-19, 07:44:04,VALID,918.256,VALID,0,VALID,97.7169,VALID,160.195,VALID,21.0649,VALID,178,VALID,0,
2015-03-19, 07:45:04,VALID,918.288,VALID,0,VALID,97.6331,VALID,171.261,VALID,21.1445,VALID,174,VALID,0,
2015-03-19, 07:46:04,VALID,918.314,VALID,0,VALID,97.5416,VALID,179.104,VALID,21.2031,VALID,174,VALID,0,
2015-03-19, 07:47:04,VALID,918.336,VALID,0,VALID,97.3968,VALID,185.551,VALID,21.2616,VALID,155,VALID,0,
2015-03-19, 07:48:04,VALID,918.361,VALID,0,VALID,97.1071,VALID,190.278,VALID,21.2811,VALID,155,VALID,0,
2015-03-19, 07:49:04,VALID,918.425,VALID,0,VALID,96.7488,VALID,197.584,VALID,21.3396,VALID,145,VALID,0,
2015-03-19, 07:50:04,VALID,918.418,VALID,0,VALID,96.2837,VALID,203.279,VALID,21.338,VALID,145,VALID,0,
2015-03-19, 07:51:04,VALID,918.455,VALID,0,VALID,95.9102,VALID,208.221,VALID,21.4372,VALID,145,VALID,0,
2015-03-19, 07:52:04,VALID,918.463,VALID,0,VALID,95.3842,VALID,208.436,VALID,21.4372,VALID,145,VALID,0,
2015-03-19, 07:53:04,VALID,918.501,VALID,0,VALID,95.0411,VALID,198.551,VALID,21.4957,VALID,145,VALID,0,
2015-03-19, 07:54:04,VALID,918.519,VALID,0,VALID,94.7667,VALID,196.617,VALID,21.4957,VALID,143,VALID,0,
2015-03-19, 07:55:04,VALID,918.552,VALID,0,VALID,94.4694,VALID,212.733,VALID,21.4957,VALID,143,VALID,0,
2015-03-19, 07:56:04,VALID,918.6,VALID,0,VALID,94.2254,VALID,217.139,VALID,21.5152,VALID,154,VALID,0,
2015-03-19, 07:57:04,VALID,918.617,VALID,0,VALID,94.233,VALID,220.254,VALID,21.5754,VALID,154,VALID,0,
2015-03-19, 07:58:04,VALID,918.655,VALID,0,VALID,94.1034,VALID,218.106,VALID,21.5932,VALID,170,VALID,1.1625,
2015-03-19, 07:59:04,VALID,918.673,VALID,0,VALID,94.0196,VALID,212.626,VALID,21.6924,VALID,168,VALID,0.757422,
2015-03-19, 08:00:04,VALID,918.674,VALID,0,VALID,93.7756,VALID,236.048,VALID,21.6908,VALID,167,VALID,0.978125,
2015-03-19, 08:01:04,VALID,918.669,VALID,0,VALID,93.646,VALID,243.784,VALID,21.7103,VALID,185,VALID,0.913281,
2015-03-19, 08:02:04,VALID,918.715,VALID,0,VALID,93.4097,VALID,238.627,VALID,21.7688,VALID,175,VALID,0.916406,
2015-03-19, 08:03:04,VALID,918.708,VALID,0,VALID,92.7617,VALID,227.345,VALID,21.7493,VALID,170,VALID,1.25625,
2015-03-19, 08:04:04,VALID,918.696,VALID,0,VALID,92.0832,VALID,234.974,VALID,21.7103,VALID,171,VALID,1.31367,
2015-03-19, 08:05:04,VALID,918.718,VALID,0,VALID,93.5241,VALID,248.619,VALID,21.7688,VALID,148,VALID,1.08633,
2015-03-19, 08:06:04,VALID,918.735,VALID,0,VALID,93.0209,VALID,227.023,VALID,21.7493,VALID,152,VALID,0,
2015-03-19, 08:07:04,VALID,918.741,VALID,0,VALID,93.7299,VALID,237.338,VALID,21.8079,VALID,145,VALID,0,
2015-03-19, 08:08:04,VALID,918.741,VALID,0,VALID,93.6079,VALID,269.033,VALID,21.8079,VALID,131,VALID,0.476172,
2015-03-19, 08:09:04,VALID,918.742,VALID,0,VALID,93.4631,VALID,279.025,VALID,21.8079,VALID,137,VALID,0,
2015-03-19, 08:10:04,VALID,918.756,VALID,0,VALID,93.7451,VALID,285.901,VALID,21.8664,VALID,161,VALID,0,
2015-03-19, 08:11:04,VALID,918.753,VALID,0,VALID,93.829,VALID,298.686,VALID,21.9444,VALID,163,VALID,0,
2015-03-19, 08:12:04,VALID,918.739,VALID,0,VALID,93.7299,VALID,305.563,VALID,22.1005,VALID,139,VALID,0,
2015-03-19, 08:13:04,VALID,918.734,VALID,0,VALID,92.9676,VALID,305.24,VALID,22.2159,VALID,157,VALID,0,
2015-03-19, 08:14:04,VALID,918.717,VALID,0,VALID,92.0527,VALID,300.835,VALID,22.3525,VALID,156,VALID,0,
2015-03-19, 08:15:04,VALID,918.699,VALID,0,VALID,89.6514,VALID,294.496,VALID,22.5086,VALID,187,VALID,0.0289063,
2015-03-19, 08:16:04,VALID,918.715,VALID,0,VALID,88.9195,VALID,291.703,VALID,22.6062,VALID,190,VALID,0.0160156,
2015-03-19, 08:17:04,VALID,918.693,VALID,0,VALID,87.7303,VALID,285.149,VALID,22.5867,VALID,164,VALID,0,
2015-03-19, 08:18:04,VALID,918.667,VALID,0,VALID,87.7226,VALID,272.793,VALID,22.5867,VALID,166,VALID,0.2625,
2015-03-19, 08:19:04,VALID,918.674,VALID,0,VALID,88.0123,VALID,270,VALID,22.6062,VALID,179,VALID,0.175,
2015-03-19, 08:20:04,VALID,918.698,VALID,0,VALID,87.3796,VALID,267.958,VALID,22.6647,VALID,182,VALID,0,
2015-03-19, 08:21:04,VALID,918.733,VALID,0,VALID,87.1966,VALID,267.636,VALID,22.7428,VALID,149,VALID,0,
2015-03-19, 08:22:04,VALID,918.771,VALID,0,VALID,86.076,VALID,243.891,VALID,22.7818,VALID,172,VALID,0,
2015-03-19, 08:23:04,VALID,918.809,VALID,0,VALID,85.9159,VALID,268.925,VALID,22.8404,VALID,175,VALID,0,
2015-03-19, 08:24:04,VALID,918.883,VALID,0,VALID,84.8791,VALID,268.603,VALID,22.9167,VALID,186,VALID,0,
2015-03-19, 08:25:04,VALID,918.916,VALID,0,VALID,84.5513,VALID,269.355,VALID,22.8972,VALID,157,VALID,0,
2015-03-19, 08:26:04,VALID,918.933,VALID,0,VALID,84.9553,VALID,269.677,VALID,22.9575,VALID,171,VALID,0,
2015-03-19, 08:27:04,VALID,918.953,VALID,0,VALID,85.4585,VALID,266.347,VALID,22.938,VALID,160,VALID,0,
2015-03-19, 08:28:04,VALID,918.954,VALID,0,VALID,85.9388,VALID,268.281,VALID,22.9362,VALID,157,VALID,0,
2015-03-19, 08:29:04,VALID,918.92,VALID,0,VALID,85.1459,VALID,267.206,VALID,22.9753,VALID,193,VALID,0,
2015-03-19, 08:30:04,VALID,918.904,VALID,0,VALID,84.3226,VALID,263.768,VALID,22.9965,VALID,172,VALID,0,
2015-03-19, 08:31:04,VALID,918.895,VALID,0,VALID,85.2755,VALID,264.09,VALID,23.0356,VALID,188,VALID,0,
2015-03-19, 08:32:04,VALID,918.878,VALID,0,VALID,84.7495,VALID,282.678,VALID,23.1722,VALID,171,VALID,0,
2015-03-19, 08:33:04,VALID,918.905,VALID,0,VALID,83.667,VALID,282.893,VALID,23.2893,VALID,174,VALID,0,
2015-03-19, 08:34:04,VALID,918.91,VALID,0,VALID,82.1499,VALID,252.164,VALID,23.2112,VALID,159,VALID,0,
2015-03-19, 08:35:04,VALID,918.945,VALID,0,VALID,82.6836,VALID,226.808,VALID,23.1899,VALID,159,VALID,0,
2015-03-19, 08:36:04,VALID,918.983,VALID,0,VALID,82.8437,VALID,219.825,VALID,23.1917,VALID,156,VALID,0,
2015-03-19, 08:37:04,VALID,919.02,VALID,0,VALID,83.4612,VALID,217.031,VALID,23.1917,VALID,169,VALID,0,
2015-03-19, 08:38:04,VALID,919.016,VALID,0,VALID,83.5984,VALID,203.064,VALID,23.2094,VALID,184,VALID,0,
2015-03-19, 08:39:04,VALID,919.053,VALID,0,VALID,83.8271,VALID,192.427,VALID,23.2698,VALID,163,VALID,0,
2015-03-19, 08:40:04,VALID,919.064,VALID,0,VALID,83.3925,VALID,187.055,VALID,23.2112,VALID,156,VALID,0,
2015-03-19, 08:41:04,VALID,919.045,VALID,0,VALID,83.3544,VALID,186.303,VALID,23.2094,VALID,156,VALID,0,
2015-03-19, 08:42:04,VALID,919.058,VALID,0,VALID,83.9948,VALID,187.27,VALID,23.2094,VALID,156,VALID,0,
2015-03-19, 08:43:04,VALID,919.069,VALID,0,VALID,84.8181,VALID,189.419,VALID,23.229,VALID,154,VALID,0,
2015-03-19, 08:44:04,VALID,919.073,VALID,0,VALID,83.8042,VALID,192.105,VALID,23.1722,VALID,148,VALID,0,
2015-03-19, 08:45:04,VALID,919.065,VALID,0,VALID,83.3925,VALID,194.898,VALID,23.0746,VALID,148,VALID,0,
2015-03-19, 08:46:04,VALID,919.052,VALID,0,VALID,83.9262,VALID,197.369,VALID,23.0143,VALID,148,VALID,0,
2015-03-19, 08:47:04,VALID,919.088,VALID,0,VALID,84.5132,VALID,199.626,VALID,23.0728,VALID,148,VALID,0,
2015-03-19, 08:48:04,VALID,919.149,VALID,0,VALID,84.6733,VALID,201.345,VALID,23.0728,VALID,148,VALID,0,
2015-03-19, 08:49:04,VALID,919.149,VALID,0,VALID,85.0773,VALID,202.312,VALID,23.1704,VALID,148,VALID,0,
2015-03-19, 08:50:04,VALID,919.171,VALID,0,VALID,84.071,VALID,202.849,VALID,23.2094,VALID,184,VALID,0,
2015-03-19, 08:51:04,VALID,919.186,VALID,0,VALID,83.9796,VALID,202.527,VALID,23.2485,VALID,179,VALID,0,
2015-03-19, 08:52:04,VALID,919.201,VALID,0,VALID,83.5145,VALID,204.031,VALID,23.3478,VALID,178,VALID,0,
2015-03-19, 08:53:04,VALID,919.218,VALID,0,VALID,84.0558,VALID,205.535,VALID,23.3265,VALID,175,VALID,0,
2015-03-19, 08:54:04,VALID,919.196,VALID,0,VALID,84.0253,VALID,207.147,VALID,23.4046,VALID,175,VALID,0,
2015-03-19, 08:55:04,VALID,919.206,VALID,0,VALID,83.8576,VALID,208.973,VALID,23.4632,VALID,182,VALID,0,
2015-03-19, 08:56:04,VALID,919.207,VALID,0,VALID,83.4002,VALID,211.229,VALID,23.4437,VALID,175,VALID,0,
2015-03-19, 08:57:04,VALID,919.179,VALID,0,VALID,83.3239,VALID,213.593,VALID,23.4632,VALID,172,VALID,0,
2015-03-19, 08:58:04,VALID,919.192,VALID,0,VALID,83.8271,VALID,215.849,VALID,23.3656,VALID,169,VALID,0,
2015-03-19, 08:59:04,VALID,919.196,VALID,0,VALID,84.2616,VALID,218.32,VALID,23.4437,VALID,185,VALID,0,
2015-03-19, 09:00:04,VALID,919.187,VALID,0,VALID,83.484,VALID,219.825,VALID,23.4614,VALID,189,VALID,0,
2015-03-19, 09:01:04,VALID,919.198,VALID,0,VALID,83.5069,VALID,221.006,VALID,23.5022,VALID,200,VALID,0,
2015-03-19, 09:02:04,VALID,919.196,VALID,0,VALID,83.4688,VALID,221.973,VALID,23.4827,VALID,223,VALID,0.248437,
2015-03-19, 09:03:04,VALID,919.205,VALID,0,VALID,84.1244,VALID,222.511,VALID,23.4437,VALID,226,VALID,0,
2015-03-19, 09:04:04,VALID,919.202,VALID,0,VALID,84.7876,VALID,223.155,VALID,23.4614,VALID,226,VALID,0,
2015-03-19, 09:05:04,VALID,919.209,VALID,0,VALID,83.8347,VALID,223.907,VALID,23.5199,VALID,215,VALID,0,
2015-03-19, 09:06:04,VALID,919.224,VALID,0,VALID,84.0024,VALID,224.552,VALID,23.5608,VALID,216,VALID,0,
2015-03-19, 09:07:04,VALID,919.247,VALID,0,VALID,84.5894,VALID,225.412,VALID,23.5998,VALID,216,VALID,0,
2015-03-19, 09:08:04,VALID,919.248,VALID,0,VALID,84.2921,VALID,226.701,VALID,23.7169,VALID,216,VALID,0,
2015-03-19, 09:09:04,VALID,919.247,VALID,0,VALID,82.6683,VALID,227.775,VALID,23.795,VALID,215,VALID,0,
2015-03-19, 09:10:04,VALID,919.289,VALID,0,VALID,82.9885,VALID,229.065,VALID,23.795,VALID,209,VALID,0,
2015-03-19, 09:11:04,VALID,919.258,VALID,0,VALID,83.667,VALID,229.387,VALID,23.6584,VALID,167,VALID,0,
2015-03-19, 09:12:04,VALID,919.265,VALID,0,VALID,83.5831,VALID,230.891,VALID,23.5803,VALID,170,VALID,0,
2015-03-19, 09:13:04,VALID,919.274,VALID,0,VALID,83.8347,VALID,233.04,VALID,23.6193,VALID,187,VALID,0,
2015-03-19, 09:14:04,VALID,919.263,VALID,0,VALID,83.4459,VALID,235.081,VALID,23.6388,VALID,187,VALID,0,
2015-03-19, 09:15:04,VALID,919.276,VALID,0,VALID,83.1181,VALID,238.304,VALID,23.6779,VALID,191,VALID,0,
2015-03-19, 09:16:04,VALID,919.285,VALID,0,VALID,83.3087,VALID,241.635,VALID,23.6779,VALID,198,VALID,0,
2015-03-19, 09:17:04,VALID,919.285,VALID,0,VALID,82.8055,VALID,242.817,VALID,23.7364,VALID,186,VALID,0,
2015-03-19, 09:18:04,VALID,919.287,VALID,0,VALID,82.1118,VALID,242.924,VALID,23.7932,VALID,192,VALID,0,
2015-03-19, 09:19:04,VALID,919.26,VALID,0,VALID,81.8526,VALID,243.462,VALID,23.7542,VALID,195,VALID,0,
2015-03-19, 09:20:04,VALID,919.288,VALID,0,VALID,82.0966,VALID,244.321,VALID,23.6761,VALID,166,VALID,0,
2015-03-19, 09:21:04,VALID,919.268,VALID,0,VALID,82.7674,VALID,245.288,VALID,23.559,VALID,177,VALID,0,
2015-03-19, 09:22:04,VALID,919.285,VALID,0,VALID,83.5679,VALID,246.363,VALID,23.5199,VALID,164,VALID,0,
2015-03-19, 09:23:04,VALID,919.271,VALID,0,VALID,84.0177,VALID,247.115,VALID,23.5395,VALID,177,VALID,0.741016,
2015-03-19, 09:24:04,VALID,919.285,VALID,0,VALID,83.3087,VALID,247.974,VALID,23.5199,VALID,172,VALID,0,
2015-03-19, 09:25:04,VALID,919.325,VALID,0,VALID,83.5679,VALID,248.941,VALID,23.4827,VALID,172,VALID,0,
2015-03-19, 09:26:04,VALID,919.295,VALID,0,VALID,84.1473,VALID,249.371,VALID,23.3833,VALID,164,VALID,0,
2015-03-19, 09:27:04,VALID,919.313,VALID,0,VALID,84.6809,VALID,250.445,VALID,23.3656,VALID,181,VALID,0,
2015-03-19, 09:28:04,VALID,919.304,VALID,0,VALID,83.1791,VALID,251.627,VALID,23.4241,VALID,186,VALID,0,
2015-03-19, 09:29:04,VALID,919.312,VALID,0,VALID,84.2083,VALID,253.239,VALID,23.4809,VALID,186,VALID,0,
2015-03-19, 09:30:04,VALID,919.302,VALID,0,VALID,82.7903,VALID,256.032,VALID,23.5803,VALID,186,VALID,0,
2015-03-19, 09:31:04,VALID,919.305,VALID,0,VALID,82.3253,VALID,257.429,VALID,23.7382,VALID,190,VALID,0,
2015-03-19, 09:32:04,VALID,919.293,VALID,0,VALID,81.8984,VALID,256.14,VALID,23.8163,VALID,187,VALID,0,
2015-03-19, 09:33:04,VALID,919.301,VALID,0,VALID,81.7154,VALID,257.429,VALID,23.7755,VALID,155,VALID,0,
2015-03-19, 09:34:04,VALID,919.322,VALID,0,VALID,81.845,VALID,258.181,VALID,23.6779,VALID,138,VALID,0,
2015-03-19, 09:35:04,VALID,919.282,VALID,0,VALID,82.432,VALID,261.189,VALID,23.7187,VALID,138,VALID,0,
2015-03-19, 09:36:04,VALID,919.258,VALID,0,VALID,82.4854,VALID,265.595,VALID,23.7364,VALID,138,VALID,0,
2015-03-19, 09:37:04,VALID,919.247,VALID,0,VALID,82.3329,VALID,269.785,VALID,23.795,VALID,138,VALID,0,
2015-03-19, 09:38:04,VALID,919.246,VALID,0,VALID,82.0813,VALID,273.008,VALID,23.9121,VALID,139,VALID,0,
2015-03-19, 09:39:04,VALID,919.249,VALID,0,VALID,81.4562,VALID,276.016,VALID,24.0488,VALID,174,VALID,0,
2015-03-19, 09:40:04,VALID,919.251,VALID,0,VALID,80.9912,VALID,279.454,VALID,24.0878,VALID,174,VALID,0,
2015-03-19, 09:41:04,VALID,919.241,VALID,0,VALID,80.7167,VALID,280.744,VALID,24.1659,VALID,174,VALID,0,
2015-03-19, 09:42:04,VALID,919.243,VALID,0,VALID,80.4804,VALID,281.926,VALID,24.1445,VALID,174,VALID,0,
2015-03-19, 09:43:04,VALID,919.291,VALID,0,VALID,80.5414,VALID,286.868,VALID,24.2654,VALID,174,VALID,0,
2015-03-19, 09:44:04,VALID,919.282,VALID,0,VALID,80.6329,VALID,291.703,VALID,24.3026,VALID,174,VALID,0,
2015-03-19, 09:45:04,VALID,919.237,VALID,0,VALID,79.9239,VALID,297.075,VALID,24.3611,VALID,174,VALID,0,
2015-03-19, 09:46:04,VALID,919.231,VALID,0,VALID,80.0382,VALID,300.083,VALID,24.4197,VALID,178,VALID,0,
2015-03-19, 09:47:04,VALID,919.23,VALID,0,VALID,80.3889,VALID,301.265,VALID,24.3435,VALID,202,VALID,0,
2015-03-19, 09:48:04,VALID,919.22,VALID,0,VALID,82.1042,VALID,301.587,VALID,24.244,VALID,207,VALID,0,
2015-03-19, 09:49:04,VALID,919.213,VALID,0,VALID,82.3405,VALID,302.125,VALID,24.2245,VALID,207,VALID,0,
2015-03-19, 09:50:04,VALID,919.212,VALID,0,VALID,81.3342,VALID,301.91,VALID,24.283,VALID,230,VALID,0,
2015-03-19, 09:51:04,VALID,919.242,VALID,0,VALID,81.3037,VALID,300.943,VALID,24.3398,VALID,230,VALID,0,
2015-03-19, 09:52:04,VALID,919.248,VALID,0,VALID,81.3342,VALID,299.653,VALID,24.4392,VALID,187,VALID,0.463672,
2015-03-19, 09:53:04,VALID,919.249,VALID,0,VALID,81.4257,VALID,299.653,VALID,24.4783,VALID,189,VALID,0,
2015-03-19, 09:54:04,VALID,919.283,VALID,0,VALID,80.0687,VALID,301.48,VALID,24.4783,VALID,218,VALID,0,
2015-03-19, 09:55:04,VALID,919.294,VALID,0,VALID,79.0624,VALID,302.339,VALID,24.3806,VALID,224,VALID,0,
2015-03-19, 09:56:04,VALID,919.277,VALID,0,VALID,80.206,VALID,302.662,VALID,24.2245,VALID,237,VALID,0,
2015-03-19, 09:57:04,VALID,919.29,VALID,0,VALID,80.5185,VALID,305.24,VALID,24.1445,VALID,234,VALID,0,
2015-03-19, 09:58:04,VALID,919.329,VALID,0,VALID,80.7777,VALID,307.711,VALID,24.1641,VALID,234,VALID,0,
2015-03-19, 09:59:04,VALID,919.321,VALID,0,VALID,81.4562,VALID,310.075,VALID,24.2226,VALID,237,VALID,0,
2015-03-19, 10:00:04,VALID,919.311,VALID,0,VALID,81.0293,VALID,309.108,VALID,24.3202,VALID,199,VALID,0,
2015-03-19, 10:01:04,VALID,919.318,VALID,0,VALID,80.9988,VALID,302.662,VALID,24.4764,VALID,192,VALID,0,
2015-03-19, 10:02:04,VALID,919.323,VALID,0,VALID,79.1768,VALID,277.843,VALID,24.5935,VALID,192,VALID,0,
2015-03-19, 10:03:04,VALID,919.32,VALID,0,VALID,77.6979,VALID,260.008,VALID,24.6521,VALID,203,VALID,0,
2015-03-19, 10:04:04,VALID,919.296,VALID,0,VALID,77.5759,VALID,253.669,VALID,24.6521,VALID,203,VALID,0,
2015-03-19, 10:05:04,VALID,919.327,VALID,0,VALID,77.4158,VALID,248.941,VALID,24.6912,VALID,203,VALID,0,
2015-03-19, 10:06:04,VALID,919.302,VALID,0,VALID,77.7588,VALID,244.214,VALID,24.7711,VALID,199,VALID,0,
2015-03-19, 10:07:04,VALID,919.291,VALID,0,VALID,76.9889,VALID,237.875,VALID,24.8688,VALID,198,VALID,0,
2015-03-19, 10:08:04,VALID,919.296,VALID,0,VALID,77.027,VALID,234.114,VALID,24.8474,VALID,198,VALID,0,
2015-03-19, 10:09:04,VALID,919.307,VALID,0,VALID,76.4476,VALID,230.461,VALID,24.8278,VALID,198,VALID,0,
2015-03-19, 10:10:04,VALID,919.268,VALID,0,VALID,77.2481,VALID,226.164,VALID,24.6912,VALID,198,VALID,0,
2015-03-19, 10:11:04,VALID,919.247,VALID,0,VALID,77.7131,VALID,224.015,VALID,24.7516,VALID,198,VALID,0,
2015-03-19, 10:12:04,VALID,919.279,VALID,0,VALID,77.5149,VALID,223.155,VALID,24.8083,VALID,198,VALID,0,
2015-03-19, 10:13:04,VALID,919.245,VALID,0,VALID,76.8669,VALID,224.659,VALID,24.9059,VALID,198,VALID,0,
2015-03-19, 10:14:04,VALID,919.232,VALID,0,VALID,76.966,VALID,228.957,VALID,24.8688,VALID,198,VALID,0,
2015-03-19, 10:15:04,VALID,919.219,VALID,0,VALID,78.1476,VALID,236.693,VALID,24.8278,VALID,198,VALID,0,
2015-03-19, 10:16:04,VALID,919.217,VALID,0,VALID,78.3154,VALID,250.875,VALID,24.8669,VALID,198,VALID,0,
2015-03-19, 10:17:04,VALID,919.263,VALID,0,VALID,77.8275,VALID,267.636,VALID,24.8278,VALID,218,VALID,0,
2015-03-19, 10:18:04,VALID,919.247,VALID,0,VALID,77.9189,VALID,289.661,VALID,24.6912,VALID,218,VALID,0,
2015-03-19, 10:19:04,VALID,919.259,VALID,0,VALID,78.6508,VALID,309.431,VALID,24.6131,VALID,218,VALID,0,
2015-03-19, 10:20:04,VALID,919.239,VALID,0,VALID,79.0548,VALID,319.1,VALID,24.6716,VALID,216,VALID,0,
2015-03-19, 10:21:04,VALID,919.254,VALID,0,VALID,77.9647,VALID,311.687,VALID,24.7888,VALID,192,VALID,0,
2015-03-19, 10:22:04,VALID,919.237,VALID,0,VALID,76.4247,VALID,309.431,VALID,24.8864,VALID,196,VALID,0,
2015-03-19, 10:23:04,VALID,919.245,VALID,0,VALID,76.5238,VALID,300.943,VALID,24.984,VALID,196,VALID,0,
2015-03-19, 10:24:04,VALID,919.226,VALID,0,VALID,76.0588,VALID,292.562,VALID,25.0426,VALID,192,VALID,0,
2015-03-19, 10:25:04,VALID,919.208,VALID,0,VALID,75.5709,VALID,289.339,VALID,25.1012,VALID,191,VALID,0,
2015-03-19, 10:26:04,VALID,919.192,VALID,0,VALID,74.9153,VALID,294.496,VALID,25.1598,VALID,191,VALID,0,
2015-03-19, 10:27:04,VALID,919.198,VALID,0,VALID,75.1745,VALID,345.638,VALID,25.1793,VALID,191,VALID,0,
2015-03-19, 10:28:04,VALID,919.151,VALID,0,VALID,75.9521,VALID,329.092,VALID,25.236,VALID,207,VALID,0,
2015-03-19, 10:29:04,VALID,919.147,VALID,0,VALID,76.4476,VALID,309.538,VALID,25.2164,VALID,218,VALID,0,
2015-03-19, 10:30:04,VALID,919.123,VALID,0,VALID,77.0727,VALID,311.257,VALID,25.1988,VALID,192,VALID,0,
2015-03-19, 10:31:04,VALID,919.1,VALID,0,VALID,77.3319,VALID,317.703,VALID,25.064,VALID,132,VALID,0,
2015-03-19, 10:32:04,VALID,919.099,VALID,0,VALID,76.562,VALID,328.125,VALID,24.9274,VALID,157,VALID,0,
2015-03-19, 10:33:04,VALID,919.055,VALID,0,VALID,76.7144,VALID,333.712,VALID,24.8883,VALID,157,VALID,0,
2015-03-19, 10:34:04,VALID,919.046,VALID,0,VALID,77.0194,VALID,324.15,VALID,24.8864,VALID,157,VALID,0,
2015-03-19, 10:35:04,VALID,919.047,VALID,0,VALID,77.9799,VALID,325.762,VALID,24.984,VALID,157,VALID,0,
2015-03-19, 10:36:04,VALID,919.013,VALID,0,VALID,79.9239,VALID,328.34,VALID,25.1812,VALID,157,VALID,0,
2015-03-19, 10:37:04,VALID,919.011,VALID,0,VALID,76.4705,VALID,331.671,VALID,25.0231,VALID,157,VALID,0,
2015-03-19, 10:38:04,VALID,918.992,VALID,0,VALID,77.3167,VALID,336.183,VALID,24.9255,VALID,157,VALID,0,
2015-03-19, 10:39:04,VALID,918.997,VALID,0,VALID,78.7041,VALID,347.142,VALID,25.0036,VALID,154,VALID,0,
2015-03-19, 10:40:04,VALID,918.991,VALID,0,VALID,77.3777,VALID,427.401,VALID,25.1793,VALID,175,VALID,0,
2015-03-19, 10:41:04,VALID,918.992,VALID,0,VALID,77.2709,VALID,439.757,VALID,25.2984,VALID,175,VALID,0,
2015-03-19, 10:42:04,VALID,918.978,VALID,0,VALID,77.1261,VALID,471.452,VALID,25.4136,VALID,200,VALID,0,
2015-03-19, 10:43:04,VALID,918.967,VALID,0,VALID,76.501,VALID,486.923,VALID,25.4722,VALID,200,VALID,0,
2015-03-19, 10:44:04,VALID,918.978,VALID,0,VALID,77.5606,VALID,495.089,VALID,25.5308,VALID,239,VALID,0,
2015-03-19, 10:45:04,VALID,918.969,VALID,0,VALID,76.9508,VALID,509.164,VALID,25.5308,VALID,203,VALID,1.24648,
2015-03-19, 10:46:04,VALID,918.963,VALID,0,VALID,76.2342,VALID,451.468,VALID,25.5308,VALID,184,VALID,0.963672,
2015-03-19, 10:47:04,VALID,918.935,VALID,0,VALID,76.1656,VALID,534.09,VALID,25.5503,VALID,195,VALID,0,
2015-03-19, 10:48:04,VALID,918.885,VALID,0,VALID,75.8682,VALID,499.386,VALID,25.5698,VALID,200,VALID,0.25,
2015-03-19, 10:49:04,VALID,918.861,VALID,0,VALID,75.3041,VALID,565.14,VALID,25.6675,VALID,194,VALID,0,
2015-03-19, 10:50:04,VALID,918.815,VALID,0,VALID,74.801,VALID,579.538,VALID,25.7456,VALID,222,VALID,0,
2015-03-19, 10:51:04,VALID,918.808,VALID,0,VALID,75.914,VALID,489.18,VALID,25.646,VALID,181,VALID,0,
2015-03-19, 10:52:04,VALID,918.781,VALID,0,VALID,73.9853,VALID,631.539,VALID,25.7651,VALID,194,VALID,0,
2015-03-19, 10:53:04,VALID,918.784,VALID,0,VALID,73.0018,VALID,663.986,VALID,25.8628,VALID,194,VALID,0,
2015-03-19, 10:54:04,VALID,918.803,VALID,0,VALID,72.796,VALID,666.135,VALID,26.0386,VALID,192,VALID,0,
2015-03-19, 10:55:04,VALID,918.786,VALID,0,VALID,72.6969,VALID,651.631,VALID,26.1948,VALID,194,VALID,0,
2015-03-19, 10:56:04,VALID,918.789,VALID,0,VALID,71.3475,VALID,616.39,VALID,26.2905,VALID,193,VALID,0,
2015-03-19, 10:57:04,VALID,918.763,VALID,0,VALID,71.9193,VALID,592.216,VALID,26.31,VALID,192,VALID,0,
2015-03-19, 10:58:04,VALID,918.752,VALID,0,VALID,72.0718,VALID,566.322,VALID,26.4488,VALID,194,VALID,0,
2015-03-19, 10:59:04,VALID,918.732,VALID,0,VALID,72.4682,VALID,486.171,VALID,26.4858,VALID,212,VALID,0,
2015-03-19, 11:00:04,VALID,918.699,VALID,0,VALID,70.0897,VALID,631.969,VALID,26.5249,VALID,212,VALID,0,
2015-03-19, 11:01:04,VALID,918.651,VALID,0,VALID,69.4798,VALID,607.902,VALID,26.5835,VALID,212,VALID,0,
2015-03-19, 11:02:04,VALID,918.626,VALID,0,VALID,70.631,VALID,523.99,VALID,26.6226,VALID,85,VALID,1.33125,
2015-03-19, 11:03:04,VALID,918.614,VALID,0,VALID,71.0731,VALID,543.975,VALID,26.308,VALID,62,VALID,1.45742,
2015-03-19, 11:04:04,VALID,918.584,VALID,0,VALID,71.6296,VALID,767.989,VALID,26.0366,VALID,54,VALID,1.23281,